PRIVATE WETTERSTATION BILLIGHEIM-ALLFELD                       ZURCK
Wetterdaten: Mittwoch, 31.05.2017
Datum Zeit Temp. A. Temp. A. min Temp. A. max Feuchte A. Luftdruck Regen Wind Richtung Richtung Sonnenschein ET Solar Taupunkt Windchill Windben Empfang
31.05.2017 00:00 17,6 C 17,6 C 17,9 C 90 % 1015,9 hPa 0,0 l/m 0,0 km/h (0 Bft) N 0 0 min 0,000 mm 0 W/m 15,9 C 17,6 C 0,0 km/h (0 Bft) 97 %
31.05.2017 00:10 17,6 C 17,6 C 17,6 C 90 % 1016,1 hPa 0,0 l/m 0,0 km/h (0 Bft) N 0 0 min 0,000 mm 0 W/m 15,9 C 17,6 C 0,0 km/h (0 Bft) 98 %
31.05.2017 00:20 17,5 C 17,5 C 17,6 C 90 % 1016,1 hPa 0,0 l/m 0,0 km/h (0 Bft) N 0 0 min 0,000 mm 0 W/m 15,8 C 17,5 C 0,0 km/h (0 Bft) 97 %
31.05.2017 00:30 17,5 C 17,4 C 17,5 C 90 % 1016,2 hPa 0,0 l/m 0,0 km/h (0 Bft) N 0 0 min 0,000 mm 0 W/m 15,8 C 17,5 C 0,0 km/h (0 Bft) 98 %
31.05.2017 00:40 17,5 C 17,5 C 17,5 C 90 % 1016,2 hPa 0,0 l/m 0,0 km/h (0 Bft) N 0 0 min 0,000 mm 0 W/m 15,8 C 17,5 C 0,0 km/h (0 Bft) 97 %
31.05.2017 00:50 17,4 C 17,4 C 17,5 C 90 % 1016,4 hPa 0,0 l/m 0,0 km/h (0 Bft) N 0 0 min 0,000 mm 0 W/m 15,7 C 17,4 C 0,0 km/h (0 Bft) 97 %
31.05.2017 01:00 17,2 C 17,2 C 17,4 C 90 % 1016,5 hPa 0,0 l/m 0,0 km/h (0 Bft) N 0 0 min 0,000 mm 0 W/m 15,5 C 17,2 C 0,0 km/h (0 Bft) 98 %
31.05.2017 01:10 17,0 C 17,0 C 17,2 C 91 % 1016,5 hPa 0,0 l/m 0,0 km/h (0 Bft) N 0 0 min 0,000 mm 0 W/m 15,5 C 17,0 C 0,0 km/h (0 Bft) 97 %
31.05.2017 01:20 16,8 C 16,8 C 17,0 C 90 % 1016,6 hPa 0,0 l/m 0,0 km/h (0 Bft) N 0 0 min 0,000 mm 0 W/m 15,1 C 16,8 C 0,0 km/h (0 Bft) 98 %
31.05.2017 01:30 16,6 C 16,6 C 16,8 C 91 % 1016,7 hPa 0,0 l/m 0,0 km/h (0 Bft) N 0 0 min 0,000 mm 0 W/m 15,1 C 16,6 C 0,0 km/h (0 Bft) 97 %
31.05.2017 01:40 16,5 C 16,5 C 16,6 C 91 % 1016,8 hPa 0,0 l/m 0,0 km/h (0 Bft) N 0 0 min 0,000 mm 0 W/m 15,0 C 16,5 C 0,0 km/h (0 Bft) 98 %
31.05.2017 01:50 16,5 C 16,5 C 16,5 C 91 % 1016,8 hPa 0,0 l/m 0,0 km/h (0 Bft) N 0 0 min 0,000 mm 0 W/m 15,0 C 16,5 C 0,0 km/h (0 Bft) 97 %
31.05.2017 02:00 16,4 C 16,4 C 16,5 C 90 % 1016,8 hPa 0,0 l/m 0,0 km/h (0 Bft) N 0 0 min 0,000 mm 0 W/m 14,8 C 16,4 C 0,0 km/h (0 Bft) 98 %
31.05.2017 02:10 16,3 C 16,3 C 16,4 C 90 % 1016,9 hPa 0,0 l/m 0,0 km/h (0 Bft) N 0 0 min 0,000 mm 0 W/m 14,7 C 16,3 C 0,0 km/h (0 Bft) 98 %
31.05.2017 02:20 16,2 C 16,2 C 16,3 C 90 % 1017,0 hPa 0,0 l/m 0,0 km/h (0 Bft) N 0 0 min 0,000 mm 0 W/m 14,6 C 16,2 C 0,0 km/h (0 Bft) 97 %
31.05.2017 02:30 16,2 C 16,2 C 16,2 C 90 % 1017,1 hPa 0,0 l/m 0,0 km/h (0 Bft) N 0 0 min 0,000 mm 0 W/m 14,6 C 16,2 C 0,0 km/h (0 Bft) 98 %
31.05.2017 02:40 16,2 C 16,2 C 16,2 C 90 % 1017,2 hPa 0,0 l/m 0,0 km/h (0 Bft) N 0 0 min 0,000 mm 0 W/m 14,6 C 16,2 C 0,0 km/h (0 Bft) 97 %
31.05.2017 02:50 16,1 C 16,1 C 16,2 C 90 % 1017,2 hPa 0,0 l/m 0,0 km/h (0 Bft) N 0 0 min 0,000 mm 0 W/m 14,5 C 16,1 C 0,0 km/h (0 Bft) 98 %
31.05.2017 03:00 15,9 C 15,9 C 16,1 C 90 % 1017,3 hPa 0,0 l/m 0,0 km/h (0 Bft) N 0 0 min 0,000 mm 0 W/m 14,3 C 15,9 C 0,0 km/h (0 Bft) 97 %
31.05.2017 03:10 16,0 C 15,9 C 16,0 C 90 % 1017,3 hPa 0,0 l/m 0,0 km/h (0 Bft) N 0 0 min 0,000 mm 0 W/m 14,4 C 16,0 C 0,0 km/h (0 Bft) 97 %
31.05.2017 03:20 16,0 C 16,0 C 16,0 C 90 % 1017,5 hPa 0,0 l/m 0,0 km/h (0 Bft) N 0 0 min 0,000 mm 0 W/m 14,4 C 16,0 C 0,0 km/h (0 Bft) 98 %
31.05.2017 03:30 15,9 C 15,9 C 16,0 C 90 % 1017,4 hPa 0,0 l/m 0,0 km/h (0 Bft) N 0 0 min 0,000 mm 0 W/m 14,3 C 15,9 C 0,0 km/h (0 Bft) 97 %
31.05.2017 03:40 15,8 C 15,8 C 15,9 C 90 % 1017,4 hPa 0,0 l/m 0,0 km/h (0 Bft) N 0 0 min 0,000 mm 0 W/m 14,2 C 15,8 C 0,0 km/h (0 Bft) 98 %
31.05.2017 03:50 15,7 C 15,7 C 15,8 C 90 % 1017,5 hPa 0,0 l/m 0,0 km/h (0 Bft) N 0 0 min 0,000 mm 0 W/m 14,1 C 15,7 C 0,0 km/h (0 Bft) 96 %
31.05.2017 04:00 15,6 C 15,6 C 15,7 C 90 % 1017,6 hPa 0,0 l/m 0,0 km/h (0 Bft) N 0 0 min 0,000 mm 0 W/m 14,0 C 15,6 C 0,0 km/h (0 Bft) 98 %
31.05.2017 04:10 15,5 C 15,5 C 15,6 C 90 % 1017,6 hPa 0,0 l/m 0,0 km/h (0 Bft) N 0 0 min 0,000 mm 0 W/m 13,9 C 15,5 C 0,0 km/h (0 Bft) 96 %
31.05.2017 04:20 15,4 C 15,4 C 15,5 C 91 % 1017,6 hPa 0,0 l/m 0,0 km/h (0 Bft) N 0 0 min 0,000 mm 0 W/m 13,9 C 15,4 C 0,0 km/h (0 Bft) 98 %
31.05.2017 04:30 15,4 C 15,4 C 15,4 C 91 % 1017,6 hPa 0,0 l/m 0,0 km/h (0 Bft) N 0 0 min 0,000 mm 0 W/m 13,9 C 15,4 C 0,0 km/h (0 Bft) 98 %
31.05.2017 04:40 15,3 C 15,3 C 15,4 C 91 % 1017,7 hPa 0,0 l/m 0,0 km/h (0 Bft) N 360 0 min 0,000 mm 0 W/m 13,8 C 15,3 C 1,6 km/h (1 Bft) 97 %
31.05.2017 04:50 15,3 C 15,3 C 15,3 C 91 % 1017,7 hPa 0,0 l/m 0,0 km/h (0 Bft) N 0 0 min 0,000 mm 0 W/m 13,8 C 15,3 C 0,0 km/h (0 Bft) 98 %
31.05.2017 05:00 15,1 C 15,1 C 15,3 C 91 % 1017,7 hPa 0,0 l/m 0,0 km/h (0 Bft) N 0 0 min 0,000 mm 0 W/m 13,6 C 15,1 C 0,0 km/h (0 Bft) 97 %
31.05.2017 05:10 15,1 C 15,1 C 15,1 C 91 % 1018,0 hPa 0,0 l/m 0,0 km/h (0 Bft) N 0 0 min 0,000 mm 0 W/m 13,6 C 15,1 C 0,0 km/h (0 Bft) 98 %
31.05.2017 05:20 15,1 C 15,1 C 15,1 C 91 % 1018,1 hPa 0,0 l/m 0,0 km/h (0 Bft) N 0 0 min 0,000 mm 0 W/m 13,6 C 15,1 C 0,0 km/h (0 Bft) 97 %
31.05.2017 05:30 14,8 C 14,8 C 15,1 C 91 % 1018,1 hPa 0,0 l/m 0,0 km/h (0 Bft) N 0 0 min 0,000 mm 5 W/m 13,3 C 14,8 C 0,0 km/h (0 Bft) 89 %
31.05.2017 05:40 14,6 C 14,6 C 14,8 C 91 % 1018,3 hPa 0,0 l/m 0,0 km/h (0 Bft) N 0 0 min 0,000 mm 9 W/m 13,1 C 14,6 C 0,0 km/h (0 Bft) 98 %
31.05.2017 05:50 14,6 C 14,6 C 14,7 C 91 % 1018,5 hPa 0,0 l/m 0,0 km/h (0 Bft) N 0 0 min 0,000 mm 12 W/m 13,1 C 14,6 C 0,0 km/h (0 Bft) 97 %
31.05.2017 06:00 14,8 C 14,6 C 14,8 C 91 % 1018,6 hPa 0,0 l/m 0,0 km/h (0 Bft) N 0 0 min 0,000 mm 16 W/m 13,3 C 14,8 C 0,0 km/h (0 Bft) 98 %
31.05.2017 06:10 15,1 C 14,8 C 15,1 C 91 % 1018,7 hPa 0,0 l/m 0,0 km/h (0 Bft) N 0 0 min 0,000 mm 23 W/m 13,6 C 15,1 C 0,0 km/h (0 Bft) 97 %
31.05.2017 06:20 15,1 C 15,1 C 15,1 C 91 % 1018,8 hPa 0,0 l/m 0,0 km/h (0 Bft) N 0 0 min 0,000 mm 33 W/m 13,6 C 15,1 C 0,0 km/h (0 Bft) 98 %
31.05.2017 06:30 15,2 C 15,1 C 15,2 C 91 % 1018,9 hPa 0,0 l/m 0,0 km/h (0 Bft) N 0 0 min 0,000 mm 42 W/m 13,7 C 15,2 C 0,0 km/h (0 Bft) 97 %
31.05.2017 06:40 15,4 C 15,2 C 15,4 C 91 % 1018,9 hPa 0,0 l/m 0,0 km/h (0 Bft) N 0 0 min 0,000 mm 60 W/m 13,9 C 15,4 C 0,0 km/h (0 Bft) 97 %
31.05.2017 06:50 15,6 C 15,4 C 15,6 C 91 % 1019,0 hPa 0,0 l/m 0,0 km/h (0 Bft) N 0 0 min 0,000 mm 74 W/m 14,1 C 15,6 C 0,0 km/h (0 Bft) 98 %
31.05.2017 07:00 15,6 C 15,6 C 15,7 C 91 % 1019,0 hPa 0,0 l/m 0,0 km/h (0 Bft) N 0 0 min 0,025 mm 84 W/m 14,1 C 15,6 C 0,0 km/h (0 Bft) 97 %
31.05.2017 07:10 15,7 C 15,6 C 15,7 C 91 % 1019,3 hPa 0,0 l/m 0,0 km/h (0 Bft) N 0 0 min 0,000 mm 102 W/m 14,2 C 15,7 C 0,0 km/h (0 Bft) 98 %
31.05.2017 07:20 15,8 C 15,7 C 15,9 C 91 % 1019,3 hPa 0,0 l/m 0,0 km/h (0 Bft) N 360 0 min 0,000 mm 116 W/m 14,3 C 15,8 C 1,6 km/h (1 Bft) 97 %
31.05.2017 07:30 16,1 C 15,9 C 16,1 C 91 % 1019,3 hPa 0,0 l/m 0,0 km/h (0 Bft) N 0 0 min 0,000 mm 114 W/m 14,6 C 16,1 C 0,0 km/h (0 Bft) 97 %
31.05.2017 07:40 16,2 C 16,1 C 16,2 C 91 % 1019,3 hPa 0,0 l/m 0,0 km/h (0 Bft) N 360 0 min 0,000 mm 121 W/m 14,7 C 16,2 C 1,6 km/h (1 Bft) 98 %
31.05.2017 07:50 16,4 C 16,2 C 16,4 C 91 % 1019,5 hPa 0,0 l/m 0,0 km/h (0 Bft) N 360 0 min 0,000 mm 151 W/m 14,9 C 16,4 C 1,6 km/h (1 Bft) 98 %
31.05.2017 08:00 16,6 C 16,4 C 16,6 C 90 % 1019,5 hPa 0,0 l/m 0,0 km/h (0 Bft) N-NW 337 10 min 0,051 mm 156 W/m 15,0 C 16,6 C 1,6 km/h (1 Bft) 98 %
31.05.2017 08:10 16,7 C 16,6 C 16,7 C 90 % 1019,6 hPa 0,0 l/m 0,0 km/h (0 Bft) N-NW 337 10 min 0,000 mm 176 W/m 15,0 C 16,7 C 1,6 km/h (1 Bft) 97 %
31.05.2017 08:20 17,1 C 16,7 C 17,1 C 89 % 1019,7 hPa 0,0 l/m 0,0 km/h (0 Bft) N 0 10 min 0,000 mm 380 W/m 15,3 C 17,1 C 0,0 km/h (0 Bft) 98 %
31.05.2017 08:30 17,6 C 17,1 C 17,6 C 86 % 1019,7 hPa 0,0 l/m 0,0 km/h (0 Bft) N-NW 337 10 min 0,000 mm 420 W/m 15,2 C 17,6 C 1,6 km/h (1 Bft) 97 %
31.05.2017 08:40 17,8 C 17,7 C 17,8 C 84 % 1019,8 hPa 0,0 l/m 0,0 km/h (0 Bft) N-NW 337 10 min 0,000 mm 411 W/m 15,1 C 17,8 C 1,6 km/h (1 Bft) 98 %
31.05.2017 08:50 18,2 C 17,8 C 18,2 C 81 % 1019,8 hPa 0,0 l/m 1,6 km/h (1 Bft) N-NW 337 10 min 0,000 mm 464 W/m 14,9 C 18,2 C 8,0 km/h (2 Bft) 98 %
31.05.2017 09:00 18,4 C 18,2 C 18,4 C 78 % 1019,8 hPa 0,0 l/m 0,0 km/h (0 Bft) N-NW 337 10 min 0,178 mm 534 W/m 14,5 C 18,4 C 1,6 km/h (1 Bft) 97 %
31.05.2017 09:10 18,8 C 18,4 C 18,8 C 77 % 1019,9 hPa 0,0 l/m 0,0 km/h (0 Bft) N-NW 337 10 min 0,000 mm 547 W/m 14,7 C 18,8 C 1,6 km/h (1 Bft) 98 %
31.05.2017 09:20 19,4 C 18,8 C 19,4 C 79 % 1020,0 hPa 0,0 l/m 0,0 km/h (0 Bft) N-NW 337 10 min 0,000 mm 566 W/m 15,7 C 19,4 C 1,6 km/h (1 Bft) 96 %
31.05.2017 09:30 19,8 C 19,4 C 19,8 C 71 % 1019,9 hPa 0,0 l/m 0,0 km/h (0 Bft) N-NW 337 10 min 0,000 mm 603 W/m 14,4 C 19,8 C 1,6 km/h (1 Bft) 98 %
31.05.2017 09:40 20,1 C 19,8 C 20,1 C 72 % 1019,9 hPa 0,0 l/m 0,0 km/h (0 Bft) N 0 10 min 0,000 mm 654 W/m 14,9 C 20,1 C 0,0 km/h (0 Bft) 97 %
31.05.2017 09:50 20,7 C 20,1 C 20,7 C 72 % 1019,9 hPa 0,0 l/m 1,6 km/h (1 Bft) W-SW 247 10 min 0,000 mm 721 W/m 15,5 C 20,7 C 9,7 km/h (2 Bft) 98 %
31.05.2017 10:00 20,3 C 20,3 C 20,8 C 72 % 1019,9 hPa 0,0 l/m 1,6 km/h (1 Bft) SW 225 10 min 0,305 mm 679 W/m 15,1 C 20,3 C 6,4 km/h (2 Bft) 98 %
31.05.2017 10:10 20,4 C 20,1 C 20,4 C 75 % 1019,9 hPa 0,0 l/m 0,0 km/h (0 Bft) S-SW 202 10 min 0,000 mm 860 W/m 15,8 C 20,4 C 1,6 km/h (1 Bft) 98 %
31.05.2017 10:20 21,0 C 20,4 C 21,0 C 71 % 1019,9 hPa 0,0 l/m 1,6 km/h (1 Bft) W-NW 292 10 min 0,000 mm 735 W/m 15,5 C 21,0 C 9,7 km/h (2 Bft) 98 %
31.05.2017 10:30 20,7 C 20,7 C 21,0 C 72 % 1019,8 hPa 0,0 l/m 0,0 km/h (0 Bft) W-NW 292 10 min 0,000 mm 287 W/m 15,5 C 20,7 C 1,6 km/h (1 Bft) 97 %
31.05.2017 10:40 20,3 C 20,3 C 20,7 C 70 % 1019,9 hPa 0,0 l/m 3,2 km/h (1 Bft) W-NW 292 10 min 0,000 mm 874 W/m 14,6 C 20,3 C 14,5 km/h (3 Bft) 98 %
31.05.2017 10:50 20,7 C 20,3 C 20,7 C 74 % 1019,9 hPa 0,0 l/m 6,4 km/h (2 Bft) W-SW 247 10 min 0,000 mm 884 W/m 15,9 C 20,7 C 16,1 km/h (3 Bft) 97 %
31.05.2017 11:00 21,8 C 20,7 C 21,8 C 69 % 1019,9 hPa 0,0 l/m 3,2 km/h (1 Bft) W-SW 247 10 min 0,356 mm 928 W/m 15,9 C 21,8 C 11,3 km/h (2 Bft) 98 %
31.05.2017 11:10 21,9 C 21,8 C 21,9 C 67 % 1019,9 hPa 0,0 l/m 3,2 km/h (1 Bft) SW 225 10 min 0,000 mm 865 W/m 15,5 C 21,9 C 11,3 km/h (2 Bft) 98 %
31.05.2017 11:20 22,0 C 21,9 C 22,1 C 66 % 1020,0 hPa 0,0 l/m 6,4 km/h (2 Bft) W 270 10 min 0,000 mm 826 W/m 15,3 C 22,0 C 12,9 km/h (3 Bft) 98 %
31.05.2017 11:30 22,1 C 22,0 C 22,2 C 64 % 1020,0 hPa 0,0 l/m 4,8 km/h (1 Bft) SW 225 10 min 0,000 mm 833 W/m 15,0 C 22,1 C 11,3 km/h (2 Bft) 98 %
31.05.2017 11:40 21,8 C 21,8 C 22,2 C 67 % 1020,0 hPa 0,0 l/m 4,8 km/h (1 Bft) W 270 10 min 0,000 mm 874 W/m 15,4 C 21,8 C 11,3 km/h (2 Bft) 97 %
31.05.2017 11:50 21,9 C 21,8 C 21,9 C 66 % 1019,9 hPa 0,0 l/m 4,8 km/h (1 Bft) W-SW 247 10 min 0,000 mm 914 W/m 15,3 C 21,9 C 14,5 km/h (3 Bft) 98 %
31.05.2017 12:00 22,1 C 21,9 C 22,1 C 66 % 1019,9 hPa 0,0 l/m 4,8 km/h (1 Bft) W-NW 292 10 min 0,381 mm 972 W/m 15,4 C 22,1 C 12,9 km/h (3 Bft) 97 %
31.05.2017 12:10 22,6 C 22,1 C 22,6 C 64 % 1019,8 hPa 0,0 l/m 4,8 km/h (1 Bft) W-SW 247 10 min 0,000 mm 882 W/m 15,4 C 22,6 C 17,7 km/h (3 Bft) 97 %
31.05.2017 12:20 22,9 C 22,6 C 22,9 C 65 % 1019,9 hPa 0,0 l/m 4,8 km/h (1 Bft) W-NW 292 10 min 0,000 mm 895 W/m 16,0 C 22,9 C 11,3 km/h (2 Bft) 98 %
31.05.2017 12:30 22,9 C 22,9 C 22,9 C 63 % 1019,8 hPa 0,0 l/m 6,4 km/h (2 Bft) NW 315 10 min 0,000 mm 923 W/m 15,5 C 22,9 C 14,5 km/h (3 Bft) 98 %
31.05.2017 12:40 22,9 C 22,9 C 23,0 C 63 % 1019,8 hPa 0,0 l/m 4,8 km/h (1 Bft) W-NW 292 10 min 0,000 mm 930 W/m 15,5 C 22,9 C 17,7 km/h (3 Bft) 98 %
31.05.2017 12:50 23,1 C 22,8 C 23,1 C 68 % 1019,7 hPa 0,0 l/m 4,8 km/h (1 Bft) W-NW 292 10 min 0,000 mm 953 W/m 16,9 C 23,1 C 11,3 km/h (2 Bft) 96 %
31.05.2017 13:00 23,4 C 23,1 C 23,4 C 61 % 1019,7 hPa 0,0 l/m 3,2 km/h (1 Bft) W-NW 292 10 min 0,533 mm 949 W/m 15,4 C 23,4 C 14,5 km/h (3 Bft) 97 %
31.05.2017 13:10 23,2 C 23,2 C 23,5 C 61 % 1019,7 hPa 0,0 l/m 3,2 km/h (1 Bft) W-NW 292 10 min 0,000 mm 981 W/m 15,3 C 23,2 C 8,0 km/h (2 Bft) 98 %
31.05.2017 13:20 23,4 C 23,2 C 23,4 C 61 % 1019,7 hPa 0,0 l/m 4,8 km/h (1 Bft) W-NW 292 10 min 0,000 mm 956 W/m 15,4 C 23,4 C 17,7 km/h (3 Bft) 97 %
31.05.2017 13:30 23,7 C 23,4 C 23,7 C 61 % 1019,6 hPa 0,0 l/m 1,6 km/h (1 Bft) NW 315 10 min 0,000 mm 942 W/m 15,7 C 23,7 C 9,7 km/h (2 Bft) 99 %
31.05.2017 13:40 23,5 C 23,3 C 23,7 C 63 % 1019,4 hPa 0,0 l/m 1,6 km/h (1 Bft) NW 315 10 min 0,000 mm 935 W/m 16,0 C 23,5 C 11,3 km/h (2 Bft) 100 %
31.05.2017 13:50 23,8 C 23,5 C 23,8 C 62 % 1019,3 hPa 0,0 l/m 1,6 km/h (1 Bft) N-NW 337 10 min 0,000 mm 963 W/m 16,1 C 23,8 C 6,4 km/h (2 Bft) 100 %
31.05.2017 14:00 23,7 C 23,7 C 23,8 C 58 % 1019,2 hPa 0,0 l/m 3,2 km/h (1 Bft) NW 315 10 min 0,584 mm 954 W/m 14,9 C 23,7 C 14,5 km/h (3 Bft) 100 %
31.05.2017 14:10 24,1 C 23,7 C 24,1 C 61 % 1019,2 hPa 0,0 l/m 4,8 km/h (1 Bft) NW 315 10 min 0,000 mm 925 W/m 16,1 C 24,1 C 14,5 km/h (3 Bft) 100 %
31.05.2017 14:20 24,4 C 24,1 C 24,4 C 57 % 1019,1 hPa 0,0 l/m 4,8 km/h (1 Bft) NW 315 10 min 0,000 mm 912 W/m 15,3 C 24,4 C 11,3 km/h (2 Bft) 100 %
31.05.2017 14:30 24,6 C 24,4 C 24,6 C 58 % 1019,0 hPa 0,0 l/m 3,2 km/h (1 Bft) W-NW 292 10 min 0,000 mm 911 W/m 15,8 C 24,6 C 14,5 km/h (3 Bft) 100 %
31.05.2017 14:40 24,9 C 24,6 C 24,9 C 60 % 1019,0 hPa 0,0 l/m 3,2 km/h (1 Bft) W-NW 292 10 min 0,000 mm 900 W/m 16,6 C 24,9 C 14,5 km/h (3 Bft) 100 %
31.05.2017 14:50 25,1 C 24,9 C 25,1 C 56 % 1019,0 hPa 0,0 l/m 4,8 km/h (1 Bft) W-NW 292 10 min 0,000 mm 891 W/m 15,7 C 25,1 C 16,1 km/h (3 Bft) 100 %
31.05.2017 15:00 24,9 C 24,8 C 25,1 C 59 % 1018,9 hPa 0,0 l/m 1,6 km/h (1 Bft) W-NW 292 10 min 0,559 mm 882 W/m 16,3 C 24,9 C 11,3 km/h (2 Bft) 100 %
31.05.2017 15:10 24,9 C 24,9 C 25,0 C 54 % 1018,9 hPa 0,0 l/m 1,6 km/h (1 Bft) W-NW 292 10 min 0,000 mm 874 W/m 14,9 C 24,9 C 11,3 km/h (2 Bft) 100 %
31.05.2017 15:20 24,7 C 24,6 C 24,9 C 58 % 1018,8 hPa 0,0 l/m 3,2 km/h (1 Bft) W-NW 292 10 min 0,000 mm 216 W/m 15,9 C 24,7 C 11,3 km/h (2 Bft) 100 %
31.05.2017 15:30 24,8 C 24,7 C 24,8 C 56 % 1018,7 hPa 0,0 l/m 1,6 km/h (1 Bft) NW 315 10 min 0,000 mm 406 W/m 15,4 C 24,8 C 9,7 km/h (2 Bft) 90 %
31.05.2017 15:40 24,9 C 24,8 C 24,9 C 54 % 1018,6 hPa 0,0 l/m 1,6 km/h (1 Bft) N-NW 337 10 min 0,000 mm 288 W/m 14,9 C 24,9 C 9,7 km/h (2 Bft) 100 %
31.05.2017 16:10 24,1 C 24,1 C 24,9 C 57 % 1018,3 hPa 0,0 l/m 0,6 km/h (0 Bft) S-SW 211 30 min 0,228 mm 668 W/m 15,0 C 24,1 C 8,0 km/h (2 Bft) 100 %
31.05.2017 16:20 24,1 C 24,0 C 24,1 C 56 % 1018,3 hPa 0,0 l/m 2,4 km/h (1 Bft) NW 318 0 min 0,000 mm 139 W/m 14,8 C 24,1 C 9,7 km/h (2 Bft) 100 %
31.05.2017 16:30 23,9 C 23,9 C 24,2 C 61 % 1018,4 hPa 0,0 l/m 0,0 km/h (0 Bft) W 267 10 min 0,000 mm 471 W/m 15,9 C 23,9 C 0,0 km/h (0 Bft) 100 %
31.05.2017 16:40 23,9 C 23,8 C 23,9 C 63 % 1018,3 hPa 0,0 l/m 0,0 km/h (0 Bft) W-SW 258 10 min 0,000 mm 213 W/m 16,4 C 23,9 C 0,0 km/h (0 Bft) 98 %
31.05.2017 16:50 23,7 C 23,7 C 23,9 C 65 % 1018,3 hPa 0,0 l/m 0,0 km/h (0 Bft) W 259 10 min 0,000 mm 163 W/m 16,7 C 23,7 C 0,0 km/h (0 Bft) 100 %
31.05.2017 17:00 23,4 C 23,4 C 23,7 C 65 % 1018,2 hPa 0,0 l/m 0,0 km/h (0 Bft) W 259 10 min 0,204 mm 190 W/m 16,4 C 23,4 C 0,0 km/h (0 Bft) 100 %
31.05.2017 17:10 23,2 C 23,2 C 23,4 C 67 % 1018,2 hPa 0,0 l/m 0,0 km/h (0 Bft) W-SW 258 0 min 0,000 mm 149 W/m 16,7 C 23,2 C 1,6 km/h (1 Bft) 100 %
31.05.2017 17:20 23,2 C 23,2 C 23,3 C 67 % 1018,1 hPa 0,0 l/m 0,1 km/h (0 Bft) W-SW 243 10 min 0,000 mm 153 W/m 16,7 C 23,2 C 4,8 km/h (1 Bft) 100 %
31.05.2017 17:30 23,2 C 23,2 C 23,2 C 64 % 1018,0 hPa 0,0 l/m 0,3 km/h (0 Bft) NW 309 0 min 0,000 mm 97 W/m 16,0 C 23,2 C 11,3 km/h (2 Bft) 100 %
31.05.2017 17:40 23,1 C 23,1 C 23,2 C 66 % 1017,9 hPa 0,0 l/m 0,5 km/h (0 Bft) O-NO 57 0 min 0,000 mm 91 W/m 16,4 C 23,1 C 6,4 km/h (2 Bft) 100 %
31.05.2017 17:50 23,2 C 23,1 C 23,2 C 65 % 1017,9 hPa 0,0 l/m 1,9 km/h (1 Bft) N-NW 340 0 min 0,000 mm 86 W/m 16,2 C 23,2 C 8,0 km/h (2 Bft) 100 %
31.05.2017 18:00 23,3 C 23,2 C 23,3 C 63 % 1017,9 hPa 0,0 l/m 1,0 km/h (0 Bft) N-NW 328 0 min 0,076 mm 76 W/m 15,9 C 23,3 C 4,8 km/h (1 Bft) 100 %
31.05.2017 18:10 23,2 C 23,2 C 23,3 C 63 % 1017,7 hPa 0,0 l/m 1,9 km/h (1 Bft) N-NW 342 0 min 0,000 mm 65 W/m 15,8 C 23,2 C 11,3 km/h (2 Bft) 99 %
31.05.2017 18:20 23,0 C 23,0 C 23,2 C 63 % 1017,8 hPa 0,0 l/m 0,7 km/h (0 Bft) NW 321 0 min 0,000 mm 72 W/m 15,6 C 23,0 C 6,4 km/h (2 Bft) 100 %
31.05.2017 18:30 23,0 C 22,9 C 23,0 C 63 % 1017,7 hPa 0,0 l/m 0,5 km/h (0 Bft) W-NW 292 0 min 0,000 mm 70 W/m 15,6 C 23,0 C 4,8 km/h (1 Bft) 100 %
31.05.2017 18:40 22,9 C 22,9 C 23,0 C 62 % 1017,8 hPa 0,0 l/m 0,7 km/h (0 Bft) N-NW 337 0 min 0,000 mm 70 W/m 15,2 C 22,9 C 6,4 km/h (2 Bft) 99 %
31.05.2017 18:50 22,8 C 22,8 C 22,9 C 63 % 1017,8 hPa 0,0 l/m 0,1 km/h (0 Bft) NW 323 0 min 0,000 mm 70 W/m 15,4 C 22,8 C 8,0 km/h (2 Bft) 100 %
31.05.2017 19:00 22,6 C 22,6 C 22,8 C 62 % 1017,7 hPa 0,0 l/m 2,3 km/h (1 Bft) N-NW 329 0 min 0,000 mm 67 W/m 14,9 C 22,6 C 9,7 km/h (2 Bft) 100 %
31.05.2017 19:10 22,4 C 22,4 C 22,6 C 63 % 1017,7 hPa 0,0 l/m 0,0 km/h (0 Bft) S 186 0 min 0,051 mm 67 W/m 15,0 C 22,4 C 1,6 km/h (1 Bft) 99 %
31.05.2017 19:20 22,2 C 22,2 C 22,4 C 62 % 1017,8 hPa 0,0 l/m 0,2 km/h (0 Bft) S-SW 196 0 min 0,000 mm 62 W/m 14,6 C 22,2 C 4,8 km/h (1 Bft) 100 %
31.05.2017 19:30 22,0 C 22,0 C 22,2 C 62 % 1017,9 hPa 0,0 l/m 0,4 km/h (0 Bft) N-NW 336 0 min 0,000 mm 111 W/m 14,4 C 22,0 C 11,3 km/h (2 Bft) 100 %
31.05.2017 19:40 21,7 C 21,7 C 22,0 C 64 % 1017,9 hPa 0,0 l/m 0,0 km/h (0 Bft) N-NW 332 0 min 0,000 mm 53 W/m 14,6 C 21,7 C 1,6 km/h (1 Bft) 100 %
31.05.2017 19:50 21,5 C 21,5 C 21,7 C 65 % 1018,0 hPa 0,0 l/m 0,0 km/h (0 Bft) N-NW 330 0 min 0,000 mm 42 W/m 14,6 C 21,5 C 1,6 km/h (1 Bft) 100 %
31.05.2017 20:00 21,2 C 21,2 C 21,5 C 65 % 1018,2 hPa 0,0 l/m 0,0 km/h (0 Bft) N-NW 328 0 min 0,000 mm 39 W/m 14,4 C 21,2 C 1,6 km/h (1 Bft) 100 %
31.05.2017 20:10 20,9 C 20,9 C 21,2 C 66 % 1018,3 hPa 0,0 l/m 0,0 km/h (0 Bft) N-NW 328 0 min 0,050 mm 30 W/m 14,3 C 20,9 C 0,0 km/h (0 Bft) 99 %
31.05.2017 20:20 20,5 C 20,5 C 20,9 C 67 % 1018,4 hPa 0,0 l/m 0,0 km/h (0 Bft) NW 313 0 min 0,000 mm 26 W/m 14,2 C 20,5 C 1,6 km/h (1 Bft) 100 %
31.05.2017 20:30 20,1 C 20,1 C 20,5 C 69 % 1018,3 hPa 0,0 l/m 0,0 km/h (0 Bft) NW 313 0 min 0,000 mm 21 W/m 14,2 C 20,1 C 0,0 km/h (0 Bft) 100 %
31.05.2017 20:40 19,6 C 19,6 C 20,1 C 70 % 1018,4 hPa 0,0 l/m 0,0 km/h (0 Bft) NW 313 0 min 0,000 mm 18 W/m 14,0 C 19,6 C 0,0 km/h (0 Bft) 100 %
31.05.2017 20:50 19,2 C 19,2 C 19,6 C 73 % 1018,4 hPa 0,0 l/m 0,0 km/h (0 Bft) NW 313 0 min 0,000 mm 12 W/m 14,2 C 19,2 C 0,0 km/h (0 Bft) 100 %
31.05.2017 21:00 18,6 C 18,6 C 19,2 C 73 % 1018,5 hPa 0,0 l/m 0,0 km/h (0 Bft) NW 313 0 min 0,000 mm 11 W/m 13,7 C 18,6 C 0,0 km/h (0 Bft) 100 %
31.05.2017 21:10 18,1 C 18,1 C 18,6 C 76 % 1018,6 hPa 0,0 l/m 0,0 km/h (0 Bft) N 0 0 min 0,000 mm 11 W/m 13,8 C 18,1 C 0,0 km/h (0 Bft) 100 %
31.05.2017 21:20 17,8 C 17,8 C 18,1 C 78 % 1018,7 hPa 0,0 l/m 0,0 km/h (0 Bft) N 0 0 min 0,000 mm 5 W/m 13,9 C 17,8 C 0,0 km/h (0 Bft) 100 %
31.05.2017 21:30 17,2 C 17,2 C 17,7 C 80 % 1018,6 hPa 0,0 l/m 0,0 km/h (0 Bft) N 0 0 min 0,000 mm 0 W/m 13,7 C 17,2 C 0,0 km/h (0 Bft) 100 %
31.05.2017 21:40 16,7 C 16,7 C 17,2 C 80 % 1018,7 hPa 0,0 l/m 0,0 km/h (0 Bft) N 0 0 min 0,000 mm 0 W/m 13,2 C 16,7 C 0,0 km/h (0 Bft) 100 %
31.05.2017 21:50 16,4 C 16,4 C 16,8 C 80 % 1018,9 hPa 0,0 l/m 0,0 km/h (0 Bft) N 0 0 min 0,000 mm 0 W/m 12,9 C 16,4 C 0,0 km/h (0 Bft) 100 %
31.05.2017 22:00 16,2 C 16,2 C 16,4 C 79 % 1019,1 hPa 0,0 l/m 0,0 km/h (0 Bft) N 0 0 min 0,000 mm 0 W/m 12,6 C 16,2 C 0,0 km/h (0 Bft) 100 %
31.05.2017 22:10 16,1 C 16,1 C 16,2 C 78 % 1019,1 hPa 0,0 l/m 0,0 km/h (0 Bft) N 0 0 min 0,000 mm 0 W/m 12,3 C 16,1 C 0,0 km/h (0 Bft) 100 %
31.05.2017 22:20 16,1 C 16,1 C 16,1 C 79 % 1019,1 hPa 0,0 l/m 0,0 km/h (0 Bft) N 0 0 min 0,000 mm 0 W/m 12,5 C 16,1 C 0,0 km/h (0 Bft) 100 %
31.05.2017 22:30 16,1 C 16,1 C 16,1 C 79 % 1019,2 hPa 0,0 l/m 0,0 km/h (0 Bft) N 0 0 min 0,000 mm 0 W/m 12,5 C 16,1 C 0,0 km/h (0 Bft) 100 %
31.05.2017 22:40 15,9 C 15,9 C 16,1 C 79 % 1019,2 hPa 0,0 l/m 0,0 km/h (0 Bft) N 0 0 min 0,000 mm 0 W/m 12,3 C 15,9 C 0,0 km/h (0 Bft) 100 %
31.05.2017 22:50 15,9 C 15,8 C 15,9 C 78 % 1019,3 hPa 0,0 l/m 0,0 km/h (0 Bft) N 0 0 min 0,000 mm 0 W/m 12,1 C 15,9 C 0,0 km/h (0 Bft) 100 %
31.05.2017 23:00 15,8 C 15,8 C 15,9 C 79 % 1019,2 hPa 0,0 l/m 0,0 km/h (0 Bft) N 0 0 min 0,025 mm 0 W/m 12,2 C 15,8 C 0,0 km/h (0 Bft) 100 %
31.05.2017 23:10 15,7 C 15,7 C 15,8 C 79 % 1019,2 hPa 0,0 l/m 0,0 km/h (0 Bft) N 0 0 min 0,000 mm 0 W/m 12,1 C 15,7 C 0,0 km/h (0 Bft) 100 %
31.05.2017 23:20 15,5 C 15,5 C 15,7 C 79 % 1019,3 hPa 0,0 l/m 0,0 km/h (0 Bft) N 0 0 min 0,000 mm 0 W/m 11,9 C 15,5 C 0,0 km/h (0 Bft) 100 %
31.05.2017 23:30 15,3 C 15,3 C 15,5 C 81 % 1019,3 hPa 0,0 l/m 0,0 km/h (0 Bft) N 0 0 min 0,000 mm 0 W/m 12,1 C 15,3 C 0,0 km/h (0 Bft) 100 %
31.05.2017 23:40 15,1 C 15,1 C 15,3 C 81 % 1019,3 hPa 0,0 l/m 0,0 km/h (0 Bft) N 0 0 min 0,000 mm 0 W/m 11,9 C 15,1 C 0,0 km/h (0 Bft) 100 %
31.05.2017 23:50 14,8 C 14,8 C 15,1 C 83 % 1019,3 hPa 0,0 l/m 0,0 km/h (0 Bft) N 0 0 min 0,000 mm 0 W/m 11,9 C 14,8 C 0,0 km/h (0 Bft) 100 %
_ Min-Zeit 05:40 05:40 05:50 15:10 00:00 - 00:00 - - - - - 23:40 05:40 00:00 05:30
Minimum _ 14,6 C 14,6 C 14,7 C 54 % 1015,9 hPa - 0,0 km/h (0 Bft) - - - - - 11,9 C 14,6 C 0,0 km/h (0 Bft) 89 %
_ Max-Zeit 14:50 14:50 14:50 01:10 09:20 00:00 10:50 - - 16:10 14:00 13:10 12:50 14:50 12:10 13:40
Maximum _ 25,1 C 24,9 C 25,1 C 91 % 1020,0 hPa 0,0 l/m 6,4 km/h
W-SW (2 Bft)
- - 30 min 0,584 mm 981 W/m 16,9 C 25,1 C 17,7 km/h
W (3 Bft)
100 %
Durchschnitt _ 19,3 C 19,2 C 19,4 C 76 % 1018,5 hPa #0,0 l/m 1,0 km/h (0 Bft) W-NW - #9:10 h #3,606 mm 415 W/m 14,7 C 19,3 C 4,1 km/h (1 Bft) 98 %
PRIVATE WETTERSTATION BILLIGHEIM-ALLFELD - www.neckar-odenwald-wetter.de - Holger Sonntag